| time (UTC) | temp F | wind direction | speed MPH | gust MPH | rain 1hr in | rain 24hr in | rain mn in | humidity % | barometer mb |
| 20260505124121 | 53 | 89 | 7.0 | 10.0 | 0.00 | 0.00 | 0.00 | 83 | 1016.3 |
| 20260505123122 | 53 | 90 | 7.0 | 12.0 | 0.00 | 0.00 | 0.00 | 82 | 1016.3 |
| 20260505122121 | 54 | 87 | 8.0 | 14.0 | 0.00 | 0.00 | 0.00 | 80 | 1016.3 |
| 20260505121122 | 54 | 94 | 7.0 | 13.0 | 0.00 | 0.00 | 0.00 | 78 | 1016.4 |
| 20260505120142 | 54 | 77 | 8.0 | 12.0 | 0.00 | 0.00 | 0.00 | 74 | 1016.4 |
| 20260505115121 | 56 | 64 | 7.0 | 10.0 | 0.00 | 0.00 | 0.00 | 65 | 1016.4 |
| 20260505114121 | 55 | 33 | 7.0 | 11.0 | 0.00 | 0.00 | 0.00 | 62 | 1016.3 |
| 20260505113121 | 55 | 6 | 6.0 | 9.0 | 0.00 | 0.00 | 0.00 | 63 | 1016.5 |
| 20260505112121 | 54 | 15 | 8.0 | 13.0 | 0.00 | 0.00 | 0.00 | 67 | 1016.5 |
| 20260505111125 | 54 | 351 | 9.0 | 11.0 | 0.00 | 0.00 | 0.00 | 66 | 1016.5 |
| 20260505110125 | 54 | 345 | 7.0 | 10.0 | 0.00 | 0.00 | 0.00 | 67 | 1016.6 |
| 20260505102126 | 54 | 34 | 6.0 | 10.0 | 0.00 | 0.00 | 0.00 | 65 | 1016.7 |
| 20260505101125 | 54 | 359 | 7.0 | 10.0 | 0.00 | 0.00 | 0.00 | 67 | 1016.7 |
| 20260505100125 | 54 | 22 | 9.0 | 13.0 | 0.00 | 0.00 | 0.00 | 66 | 1016.7 |
| 20260505095145 | 53 | 17 | 9.0 | 14.0 | 0.00 | 0.00 | 0.00 | 67 | 1016.8 |
| 20260505094145 | 53 | 14 | 9.0 | 14.0 | 0.00 | 0.00 | 0.00 | 69 | 1016.8 |
| 20260505093125 | 53 | 2 | 10.0 | 13.0 | 0.00 | 0.00 | 0.00 | 70 | 1016.8 |
| 20260505092125 | 53 | 6 | 10.0 | 13.0 | 0.00 | 0.00 | 0.00 | 69 | 1016.8 |
| 20260505091125 | 53 | 9 | 12.0 | 15.0 | 0.00 | 0.00 | 0.00 | 64 | 1016.7 |
| 20260505090124 | 53 | 359 | 11.0 | 14.0 | 0.00 | 0.00 | 0.00 | 69 | 1016.6 |
| 20260505085125 | 53 | 350 | 8.0 | 12.0 | 0.00 | 0.00 | 0.00 | 72 | 1016.7 |
| 20260505084125 | 53 | 2 | 9.0 | 14.0 | 0.00 | 0.00 | 0.00 | 69 | 1016.7 |
| 20260505083124 | 52 | 2 | 9.0 | 13.0 | 0.00 | 0.00 | 0.00 | 71 | 1016.8 |
| 20260505082124 | 52 | 1 | 10.0 | 13.0 | 0.00 | 0.00 | 0.00 | 71 | 1016.8 |
| 20260505081305 | 52 | 346 | 10.0 | 15.0 | 0.00 | 0.00 | 0.00 | 70 | 1016.8 |
| 20260505080124 | 52 | 350 | 9.0 | 12.0 | 0.00 | 0.00 | 0.00 | 66 | 1016.8 |
| 20260505075124 | 52 | 359 | 10.0 | 13.0 | 0.00 | 0.00 | 0.00 | 67 | 1016.7 |
| 20260505074144 | 51 | 347 | 9.0 | 11.0 | 0.00 | 0.00 | 0.00 | 76 | 1016.7 |
| 20260505073124 | 52 | 335 | 10.0 | 13.0 | 0.00 | 0.00 | 0.00 | 76 | 1016.7 |
| 20260505072125 | 52 | 351 | 9.0 | 14.0 | 0.00 | 0.00 | 0.00 | 74 | 1016.7 |
| 20260505071124 | 52 | 355 | 10.0 | 16.0 | 0.00 | 0.00 | 0.00 | 68 | 1016.7 |
| 20260505070125 | 52 | 1 | 7.0 | 10.0 | 0.00 | 0.00 | 0.00 | 74 | 1016.7 |
| 20260505065124 | 52 | 356 | 10.0 | 13.0 | 0.00 | 0.00 | 0.00 | 72 | 1016.8 |
| 20260505064144 | 50 | 346 | 7.0 | 11.0 | 0.00 | 0.00 | 0.00 | 86 | 1016.8 |
| 20260505063125 | 49 | 342 | 9.0 | 12.0 | 0.00 | 0.00 | 0.00 | 95 | 1016.8 |
| 20260505062124 | 48 | 344 | 8.0 | 11.0 | 0.00 | 0.00 | 0.00 | 99 | 1016.9 |
| 20260505061125 | 48 | 338 | 8.0 | 11.0 | 0.00 | 0.00 | 0.00 | 100 | 1016.8 |
| 20260505060124 | 48 | 340 | 8.0 | 11.0 | 0.00 | 0.00 | 0.00 | 100 | 1016.9 |
| 20260505055124 | 47 | 324 | 8.0 | 11.0 | 0.00 | 0.00 | 0.00 | 100 | 1016.9 |
| 20260505054144 | 47 | 301 | 8.0 | 10.0 | 0.00 | 0.00 | 0.00 | 100 | 1016.8 |
| 20260505053124 | 47 | 299 | 7.0 | 11.0 | 0.00 | 0.00 | 0.00 | 100 | 1016.8 |
| 20260505052124 | 47 | 307 | 6.0 | 8.0 | 0.00 | 0.00 | 0.00 | 100 | 1016.8 |
| 20260505051124 | 48 | 300 | 7.0 | 10.0 | 0.00 | 0.00 | 0.00 | 100 | 1016.7 |
| 20260505050144 | 48 | 329 | 8.0 | 10.0 | 0.00 | 0.00 | 0.00 | 100 | 1016.7 |
| 20260505041130 | 47 | 302 | 8.0 | 13.0 | 0.00 | 0.00 | 0.00 | 100 | 1016.6 |
| 20260505040110 | 47 | 310 | 6.0 | 7.0 | 0.00 | 0.00 | 0.00 | 100 | 1016.6 |
| 20260505035110 | 47 | 298 | 8.0 | 12.0 | 0.00 | 0.00 | 0.00 | 100 | 1016.6 |
| 20260505034110 | 47 | 306 | 7.0 | 9.0 | 0.00 | 0.00 | 0.00 | 100 | 1016.7 |
| 20260505033130 | 47 | 296 | 8.0 | 14.0 | 0.00 | 0.00 | 0.00 | 100 | 1016.7 |
| 20260505032110 | 47 | 313 | 7.0 | 10.0 | 0.00 | 0.00 | 0.00 | 99 | 1016.7 |
| 20260505031129 | 47 | 311 | 6.0 | 8.0 | 0.00 | 0.00 | 0.00 | 98 | 1016.7 |
| 20260505030110 | 48 | 314 | 6.0 | 10.0 | 0.00 | 0.00 | 0.00 | 98 | 1016.7 |
| 20260505025109 | 48 | 323 | 8.0 | 13.0 | 0.00 | 0.00 | 0.00 | 98 | 1016.7 |
| 20260505024109 | 48 | 343 | 8.0 | 12.0 | 0.00 | 0.00 | 0.00 | 100 | 1016.7 |
| 20260505023134 | 48 | 326 | 7.0 | 10.0 | 0.00 | 0.00 | 0.00 | 100 | 1016.7 |
| 20260505022113 | 48 | 319 | 7.0 | 9.0 | 0.00 | 0.00 | 0.00 | 100 | 1016.7 |
| 20260505021113 | 48 | 327 | 11.0 | 15.0 | 0.00 | 0.00 | 0.00 | 100 | 1016.7 |
| 20260505020133 | 49 | 325 | 8.0 | 12.0 | 0.00 | 0.00 | 0.00 | 100 | 1016.7 |
| 20260505015115 | 49 | 325 | 8.0 | 10.0 | 0.00 | 0.00 | 0.00 | 100 | 1016.8 |
| 20260505014133 | 50 | 336 | 8.0 | 11.0 | 0.00 | 0.00 | 0.00 | 100 | 1016.8 |
| 20260505013113 | 50 | 336 | 8.0 | 10.0 | 0.00 | 0.00 | 0.00 | 100 | 1016.9 |
| 20260505012113 | 50 | 327 | 6.0 | 8.0 | 0.00 | 0.00 | 0.00 | 100 | 1017.0 |
| 20260505011113 | 49 | 312 | 6.0 | 7.0 | 0.00 | 0.00 | 0.00 | 100 | 1017.0 |
| 20260505010113 | 50 | 312 | 7.0 | 8.0 | 0.00 | 0.00 | 0.00 | 100 | 1017.0 |
| 20260505005153 | 50 | 308 | 5.0 | 7.0 | 0.00 | 0.00 | 0.00 | 100 | 1017.0 |
| 20260505004113 | 51 | 307 | 5.0 | 7.0 | 0.00 | 0.00 | 0.00 | 100 | 1017.0 |
| 20260505003133 | 51 | 327 | 5.0 | 6.0 | 0.00 | 0.00 | 0.00 | 100 | 1017.1 |
| 20260505002113 | 51 | 329 | 5.0 | 6.0 | 0.00 | 0.00 | 0.00 | 99 | 1017.1 |
| 20260505001113 | 51 | 317 | 5.0 | 6.0 | 0.00 | 0.00 | 0.00 | 97 | 1017.2 |
| 20260505000113 | 51 | 317 | 5.0 | 6.0 | 0.00 | 0.00 | 0.00 | 96 | 1017.2 |
| 20260504235113 | 52 | 335 | 5.0 | 6.0 | 0.00 | 0.00 | 0.00 | 95 | 1017.2 |
| 20260504234113 | 52 | 351 | 5.0 | 7.0 | 0.00 | 0.00 | 0.00 | 95 | 1017.2 |
| 20260504233133 | 51 | 344 | 4.0 | 6.0 | 0.00 | 0.00 | 0.00 | 96 | 1017.2 |
| 20260504232113 | 52 | 347 | 4.0 | 5.0 | 0.00 | 0.00 | 0.00 | 96 | 1017.2 |
| 20260504231113 | 51 | 356 | 4.0 | 5.0 | 0.00 | 0.00 | 0.00 | 96 | 1017.1 |
| 20260504230132 | 51 | 10 | 4.0 | 6.0 | 0.00 | 0.00 | 0.00 | 97 | 1017.2 |
| 20260504225132 | 52 | 357 | 4.0 | 6.0 | 0.00 | 0.00 | 0.00 | 97 | 1017.2 |
| 20260504224112 | 52 | 1 | 4.0 | 5.0 | 0.00 | 0.00 | 0.00 | 97 | 1017.3 |
| 20260504223113 | 52 | 351 | 4.0 | 6.0 | 0.00 | 0.00 | 0.00 | 95 | 1017.3 |
| 20260504222112 | 52 | 357 | 3.0 | 5.0 | 0.00 | 0.00 | 0.00 | 95 | 1017.3 |
| 20260504221112 | 51 | 3 | 4.0 | 5.0 | 0.00 | 0.00 | 0.00 | 95 | 1017.4 |
| 20260504220112 | 51 | 25 | 3.0 | 4.0 | 0.00 | 0.00 | 0.00 | 95 | 1017.5 |
| 20260504215112 | 51 | 27 | 3.0 | 4.0 | 0.00 | 0.00 | 0.00 | 95 | 1017.5 |
| 20260504214132 | 51 | 25 | 3.0 | 5.0 | 0.00 | 0.00 | 0.00 | 94 | 1017.5 |
| 20260504213132 | 51 | 28 | 3.0 | 5.0 | 0.00 | 0.00 | 0.00 | 94 | 1017.4 |
| 20260504212112 | 51 | 37 | 3.0 | 4.0 | 0.00 | 0.00 | 0.00 | 93 | 1017.4 |
| 20260504211112 | 51 | 42 | 3.0 | 5.0 | 0.00 | 0.00 | 0.00 | 93 | 1017.4 |
| 20260504210112 | 51 | 44 | 3.0 | 5.0 | 0.00 | 0.00 | 0.00 | 91 | 1017.4 |
| 20260504205112 | 52 | 40 | 3.0 | 5.0 | 0.00 | 0.00 | 0.00 | 90 | 1017.3 |
| 20260504204112 | 52 | 27 | 4.0 | 6.0 | 0.00 | 0.00 | 0.00 | 90 | 1017.3 |
| 20260504203112 | 52 | 30 | 4.0 | 6.0 | 0.00 | 0.00 | 0.00 | 90 | 1017.2 |
| 20260504202111 | 52 | 43 | 4.0 | 7.0 | 0.00 | 0.00 | 0.00 | 90 | 1017.1 |
| 20260504201111 | 52 | 30 | 3.0 | 5.0 | 0.00 | 0.00 | 0.00 | 88 | 1017.1 |
| 20260504200152 | 52 | 43 | 4.0 | 5.0 | 0.00 | 0.00 | 0.00 | 87 | 1017.0 |
| 20260504195112 | 52 | 31 | 4.0 | 6.0 | 0.00 | 0.00 | 0.00 | 87 | 1017.0 |
| 20260504194111 | 52 | 38 | 5.0 | 6.0 | 0.00 | 0.00 | 0.00 | 87 | 1016.9 |
| 20260504193111 | 52 | 17 | 5.0 | 7.0 | 0.00 | 0.00 | 0.00 | 88 | 1016.9 |
| 20260504192112 | 53 | 44 | 4.0 | 5.0 | 0.00 | 0.00 | 0.00 | 87 | 1016.8 |
| 20260504191111 | 53 | 28 | 4.0 | 6.0 | 0.00 | 0.00 | 0.00 | 86 | 1016.8 |
| 20260504190112 | 53 | 27 | 4.0 | 6.0 | 0.00 | 0.00 | 0.00 | 86 | 1016.8 |
| 20260504185111 | 53 | 20 | 5.0 | 6.0 | 0.00 | 0.00 | 0.00 | 86 | 1016.7 |
| 20260504184112 | 53 | 37 | 4.0 | 5.0 | 0.00 | 0.00 | 0.00 | 87 | 1016.6 |
| 20260504183111 | 53 | 36 | 4.0 | 6.0 | 0.00 | 0.00 | 0.00 | 93 | 1016.6 |
| 20260504182131 | 53 | 66 | 5.0 | 7.0 | 0.00 | 0.00 | 0.00 | 98 | 1016.6 |
| 20260504181131 | 53 | 78 | 6.0 | 9.0 | 0.00 | 0.00 | 0.00 | 98 | 1016.6 |
| 20260504180131 | 53 | 76 | 7.0 | 10.0 | 0.00 | 0.00 | 0.00 | 98 | 1016.5 |
| 20260504175111 | 53 | 76 | 7.0 | 10.0 | 0.00 | 0.00 | 0.00 | 97 | 1016.6 |
| 20260504174111 | 53 | 71 | 8.0 | 11.0 | 0.00 | 0.00 | 0.00 | 97 | 1016.5 |
| 20260504173111 | 53 | 70 | 7.0 | 9.0 | 0.00 | 0.00 | 0.00 | 97 | 1016.6 |
| 20260504172111 | 54 | 63 | 8.0 | 13.0 | 0.00 | 0.00 | 0.00 | 96 | 1016.5 |
| 20260504171111 | 54 | 72 | 8.0 | 10.0 | 0.00 | 0.00 | 0.00 | 100 | 1016.6 |
| 20260504170112 | 53 | 73 | 8.0 | 11.0 | 0.00 | 0.00 | 0.00 | 100 | 1016.6 |
| 20260504160110 | 55 | 72 | 8.0 | 12.0 | 0.00 | 0.00 | 0.00 | 97 | 1016.5 |
| 20260504151110 | 55 | 71 | 11.0 | 15.0 | 0.00 | 0.00 | 0.00 | 97 | 1016.6 |
| 20260504150110 | 55 | 79 | 13.0 | 17.0 | 0.00 | 0.00 | 0.00 | 96 | 1016.6 |
| 20260504141110 | 56 | 79 | 12.0 | 19.0 | 0.00 | 0.00 | 0.00 | 95 | 1016.6 |
| 20260504140110 | 56 | 80 | 12.0 | 18.0 | 0.00 | 0.00 | 0.00 | 96 | 1016.6 |
| 20260504130110 | 57 | 84 | 13.0 | 20.0 | 0.00 | 0.00 | 0.00 | 94 | 1016.6 |